This is the latest recevied weather packets stored in our database for station/object W8BS. If no packets are shown the sender has not sent any weather packets the latest 10 day(s).
| Time | Temp. | Humidity | Pressure | Rain* | Wind** | Luminosity | Snow |
|---|---|---|---|---|---|---|---|
| 1777314849 | 25° C | 29% | 1018.9 hPa | 0 mm | - | 707 W/m² | - |
| 1777314546 | 24.44° C | 31% | 1018.7 hPa | 0 mm | - | 697 W/m² | - |
| 1777314242 | 23.33° C | 31% | 1019 hPa | 0 mm | - | 689 W/m² | - |
| 1777313940 | 22.78° C | 30% | 1019 hPa | 0 mm | - | 680 W/m² | - |
| 1777313637 | 23.33° C | 30% | 1019.1 hPa | 0 mm | - | 694 W/m² | - |
| 1777313335 | 22.78° C | 32% | 1019.1 hPa | 0 mm | - | 592 W/m² | - |
| 1777313031 | 22.22° C | 33% | 1019.2 hPa | 0 mm | - | 658 W/m² | - |
| 1777312728 | 22.22° C | 33% | 1019.1 hPa | 0 mm | - | 685 W/m² | - |
| 1777312424 | 22.22° C | 33% | 1019.6 hPa | 0 mm | - | 678 W/m² | - |
| 1777312122 | 22.78° C | 35% | 1019.5 hPa | 0 mm | - | 665 W/m² | - |
| 1777311819 | 22.22° C | 33% | 1019.5 hPa | 0 mm | - | 687 W/m² | - |
| 1777311516 | 23.89° C | 31% | 1019.5 hPa | 0 mm | - | 687 W/m² | - |
| 1777311213 | 23.33° C | 35% | 1019.6 hPa | 0 mm | - | 710 W/m² | - |
| 1777310911 | 22.78° C | 32% | 1019.7 hPa | 0 mm | - | 696 W/m² | - |
| 1777310608 | 22.22° C | 33% | 1019.7 hPa | 0 mm | - | 698 W/m² | - |
| 1777310306 | 22.22° C | 35% | 1019.7 hPa | 0 mm | - | 700 W/m² | - |
| 1777310003 | 21.67° C | 34% | 1019.7 hPa | 0 mm | - | 690 W/m² | - |
| 1777309701 | 21.67° C | 36% | 1019.7 hPa | 0 mm | - | 698 W/m² | - |
| 1777309398 | 21.67° C | 34% | 1019.6 hPa | 0 mm | - | 702 W/m² | - |
| 1777309096 | 21.67° C | 33% | 1019.7 hPa | 0 mm | - | 707 W/m² | - |
| 1777308793 | 22.22° C | 33% | 1020 hPa | 0 mm | - | 704 W/m² | - |
| 1777308488 | 21.11° C | 33% | 1020.2 hPa | 0 mm | - | 685 W/m² | - |
| 1777308183 | 20° C | 36% | 1020.1 hPa | 0 mm | - | 675 W/m² | - |
| 1777307879 | 20.56° C | 36% | 1020.2 hPa | 0 mm | - | 687 W/m² | - |
| 1777307578 | 20° C | 37% | 1020.3 hPa | 0 mm | - | 689 W/m² | - |
* Rain latest hour (hover to see other rain measurements)
** Current wind speed in m/s (hover to see current wind gust speed)